カタログに戻る

PEGASUS R/B

運用中LEO
NORAD 26375·ROCKET BODY·🇺🇸 United States

打ち上げ Jun 7, 2000 から Vandenberg Space Force Base

Loading…

次のパス (今後24時間)

TLE

最新Source: Space-Track

元期: Sep 14, 2026, 13:37 UTC

1 26375U 00030B   26257.56789559  .00003386  00000-0  26794-3 0  9993
2 26375  68.9420 279.7710 0588610 339.9314  17.9484 14.19362851677572

AllMySatでPEGASUS R/Bをリアルタイム追跡

Download on the App Store